#datetime,building,power
2022-06-05T00:00:00,mfh,15.49
2022-06-05T00:01:00,mfh,15.28
2022-06-05T00:02:00,mfh,15.58
2022-06-05T00:03:00,mfh,15.66
2022-06-05T00:04:00,mfh,15.57
2022-06-05T00:05:00,mfh,14.84
2022-06-05T00:06:00,mfh,15.23
2022-06-05T00:07:00,mfh,14.89
2022-06-05T00:08:00,mfh,15.09
2022-06-05T00:09:00,mfh,15.43
2022-06-05T00:10:00,mfh,15.27
2022-06-05T00:11:00,mfh,15.44
2022-06-05T00:12:00,mfh,15.38
2022-06-05T00:13:00,mfh,15.36
2022-06-05T00:14:00,mfh,14.69
2022-06-05T00:15:00,mfh,14.67
2022-06-05T00:16:00,mfh,14.74
2022-06-05T00:17:00,mfh,15.43
2022-06-05T00:18:00,mfh,15.44
2022-06-05T00:19:00,mfh,15.94
2022-06-05T00:20:00,mfh,15.20
2022-06-05T00:21:00,mfh,15.17
2022-06-05T00:22:00,mfh,14.91
2022-06-05T00:23:00,mfh,14.89
2022-06-05T00:24:00,mfh,14.82
2022-06-05T00:25:00,mfh,14.87
2022-06-05T00:26:00,mfh,15.50
2022-06-05T00:27:00,mfh,15.39
2022-06-05T00:28:00,mfh,15.34
2022-06-05T00:29:00,mfh,15.73
2022-06-05T00:30:00,mfh,14.56
2022-06-05T00:31:00,mfh,14.60
2022-06-05T00:32:00,mfh,14.66
2022-06-05T00:33:00,mfh,14.39
2022-06-05T00:34:00,mfh,15.19
2022-06-05T00:35:00,mfh,14.82
2022-06-05T00:36:00,mfh,15.05
2022-06-05T00:37:00,mfh,15.66
2022-06-05T00:38:00,mfh,15.16
2022-06-05T00:39:00,mfh,14.38
2022-06-05T00:40:00,mfh,14.21
2022-06-05T00:41:00,mfh,14.32
2022-06-05T00:42:00,mfh,15.35
2022-06-05T00:43:00,mfh,15.07
2022-06-05T00:44:00,mfh,16.79
2022-06-05T00:45:00,mfh,24.52
2022-06-05T00:46:00,mfh,24.76
2022-06-05T00:47:00,mfh,23.38
2022-06-05T00:48:00,mfh,22.03
2022-06-05T00:49:00,mfh,22.23
2022-06-05T00:50:00,mfh,21.64
2022-06-05T00:51:00,mfh,21.96
2022-06-05T00:52:00,mfh,14.58
2022-06-05T00:53:00,mfh,14.34
2022-06-05T00:54:00,mfh,14.17
2022-06-05T00:55:00,mfh,14.54
2022-06-05T00:56:00,mfh,14.45
2022-06-05T00:57:00,mfh,14.42
2022-06-05T00:58:00,mfh,14.52
2022-06-05T00:59:00,mfh,14.56
2022-06-05T01:00:00,mfh,14.29
2022-06-05T01:01:00,mfh,14.34
2022-06-05T01:02:00,mfh,14.38
2022-06-05T01:03:00,mfh,14.56
2022-06-05T01:04:00,mfh,13.66
2022-06-05T01:05:00,mfh,14.10
2022-06-05T01:06:00,mfh,13.93
2022-06-05T01:07:00,mfh,13.94
2022-06-05T01:08:00,mfh,14.57
2022-06-05T01:09:00,mfh,14.55
2022-06-05T01:10:00,mfh,14.47
2022-06-05T01:11:00,mfh,14.46
2022-06-05T01:12:00,mfh,13.75
2022-06-05T01:13:00,mfh,14.46
2022-06-05T01:14:00,mfh,13.84
2022-06-05T01:15:00,mfh,13.77
2022-06-05T01:16:00,mfh,14.32
2022-06-05T01:17:00,mfh,14.42
2022-06-05T01:18:00,mfh,14.42
2022-06-05T01:19:00,mfh,14.51
2022-06-05T01:20:00,mfh,13.73
2022-06-05T01:21:00,mfh,13.74
2022-06-05T01:22:00,mfh,13.85
2022-06-05T01:23:00,mfh,13.71
2022-06-05T01:24:00,mfh,14.38
2022-06-05T01:25:00,mfh,14.28
2022-06-05T01:26:00,mfh,14.41
2022-06-05T01:27:00,mfh,14.48
2022-06-05T01:28:00,mfh,10.91
2022-06-05T01:29:00,mfh,9.92
2022-06-05T01:30:00,mfh,9.99
2022-06-05T01:31:00,mfh,9.98
2022-06-05T01:32:00,mfh,9.97
2022-06-05T01:33:00,mfh,10.48
2022-06-05T01:34:00,mfh,10.64
2022-06-05T01:35:00,mfh,10.55
2022-06-05T01:36:00,mfh,10.68
2022-06-05T01:37:00,mfh,10.20
2022-06-05T01:38:00,mfh,9.71
2022-06-05T01:39:00,mfh,9.62
2022-06-05T01:40:00,mfh,9.62
2022-06-05T01:41:00,mfh,9.62
2022-06-05T01:42:00,mfh,11.00
2022-06-05T01:43:00,mfh,10.29
2022-06-05T01:44:00,mfh,10.33
2022-06-05T01:45:00,mfh,10.35
2022-06-05T01:46:00,mfh,9.63
2022-06-05T01:47:00,mfh,9.54
2022-06-05T01:48:00,mfh,10.07
2022-06-05T01:49:00,mfh,9.47
2022-06-05T01:50:00,mfh,10.39
2022-06-05T01:51:00,mfh,10.38
2022-06-05T01:52:00,mfh,10.39
2022-06-05T01:53:00,mfh,10.43
2022-06-05T01:54:00,mfh,9.96
2022-06-05T01:55:00,mfh,10.02
2022-06-05T01:56:00,mfh,10.49
2022-06-05T01:57:00,mfh,9.86
2022-06-05T01:58:00,mfh,10.38
2022-06-05T01:59:00,mfh,10.39
2022-06-05T02:00:00,mfh,10.94
2022-06-05T02:01:00,mfh,10.66
2022-06-05T02:02:00,mfh,9.92
2022-06-05T02:03:00,mfh,9.92
2022-06-05T02:04:00,mfh,9.92
2022-06-05T02:05:00,mfh,9.86
2022-06-05T02:06:00,mfh,9.93
2022-06-05T02:07:00,mfh,10.45
2022-06-05T02:08:00,mfh,10.90
2022-06-05T02:09:00,mfh,11.13
2022-06-05T02:10:00,mfh,10.48
2022-06-05T02:11:00,mfh,10.44
2022-06-05T02:12:00,mfh,10.63
2022-06-05T02:13:00,mfh,9.76
2022-06-05T02:14:00,mfh,9.75
2022-06-05T02:15:00,mfh,11.25
2022-06-05T02:16:00,mfh,10.39
2022-06-05T02:17:00,mfh,10.41
2022-06-05T02:18:00,mfh,9.75
2022-06-05T02:19:00,mfh,9.74
2022-06-05T02:20:00,mfh,9.49
2022-06-05T02:21:00,mfh,9.49
2022-06-05T02:22:00,mfh,9.64
2022-06-05T02:23:00,mfh,10.38
2022-06-05T02:24:00,mfh,10.62
2022-06-05T02:25:00,mfh,10.36
2022-06-05T02:26:00,mfh,10.39
2022-06-05T02:27:00,mfh,9.77
2022-06-05T02:28:00,mfh,9.76
2022-06-05T02:29:00,mfh,9.75
2022-06-05T02:30:00,mfh,9.79
2022-06-05T02:31:00,mfh,10.33
2022-06-05T02:32:00,mfh,10.78
2022-06-05T02:33:00,mfh,10.58
2022-06-05T02:34:00,mfh,10.69
2022-06-05T02:35:00,mfh,9.97
2022-06-05T02:36:00,mfh,9.88
2022-06-05T02:37:00,mfh,9.82
2022-06-05T02:38:00,mfh,9.81
2022-06-05T02:39:00,mfh,10.41
2022-06-05T02:40:00,mfh,10.47
2022-06-05T02:41:00,mfh,10.44
2022-06-05T02:42:00,mfh,10.15
2022-06-05T02:43:00,mfh,9.50
2022-06-05T02:44:00,mfh,9.57
2022-06-05T02:45:00,mfh,9.56
2022-06-05T02:46:00,mfh,9.56
2022-06-05T02:47:00,mfh,10.79
2022-06-05T02:48:00,mfh,9.76
2022-06-05T02:49:00,mfh,9.90
2022-06-05T02:50:00,mfh,9.90
2022-06-05T02:51:00,mfh,9.32
2022-06-05T02:52:00,mfh,9.86
2022-06-05T02:53:00,mfh,9.86
2022-06-05T02:54:00,mfh,9.86
2022-06-05T02:55:00,mfh,10.28
2022-06-05T02:56:00,mfh,11.00
2022-06-05T02:57:00,mfh,11.88
2022-06-05T02:58:00,mfh,10.82
2022-06-05T02:59:00,mfh,10.68
2022-06-05T03:00:00,mfh,10.58
2022-06-05T03:01:00,mfh,10.16
2022-06-05T03:02:00,mfh,10.07
2022-06-05T03:03:00,mfh,10.07
2022-06-05T03:04:00,mfh,10.37
2022-06-05T03:05:00,mfh,10.36
2022-06-05T03:06:00,mfh,10.39
2022-06-05T03:07:00,mfh,10.83
2022-06-05T03:08:00,mfh,9.56
2022-06-05T03:09:00,mfh,9.49
2022-06-05T03:10:00,mfh,9.48
2022-06-05T03:11:00,mfh,9.58
2022-06-05T03:12:00,mfh,9.49
2022-06-05T03:13:00,mfh,10.11
2022-06-05T03:14:00,mfh,10.09
2022-06-05T03:15:00,mfh,10.12
2022-06-05T03:16:00,mfh,9.49
2022-06-05T03:17:00,mfh,9.66
2022-06-05T03:18:00,mfh,9.63
2022-06-05T03:19:00,mfh,9.69
2022-06-05T03:20:00,mfh,9.68
2022-06-05T03:21:00,mfh,10.34
2022-06-05T03:22:00,mfh,10.47
2022-06-05T03:23:00,mfh,10.76
2022-06-05T03:24:00,mfh,10.93
2022-06-05T03:25:00,mfh,10.11
2022-06-05T03:26:00,mfh,9.20
2022-06-05T03:27:00,mfh,9.76
2022-06-05T03:28:00,mfh,9.75
2022-06-05T03:29:00,mfh,10.38
2022-06-05T03:30:00,mfh,10.38
2022-06-05T03:31:00,mfh,10.88
2022-06-05T03:32:00,mfh,10.45
2022-06-05T03:33:00,mfh,9.66
2022-06-05T03:34:00,mfh,9.66
2022-06-05T03:35:00,mfh,9.18
2022-06-05T03:36:00,mfh,9.16
2022-06-05T03:37:00,mfh,9.80
2022-06-05T03:38:00,mfh,9.80
2022-06-05T03:39:00,mfh,9.96
2022-06-05T03:40:00,mfh,9.94
2022-06-05T03:41:00,mfh,9.33
2022-06-05T03:42:00,mfh,9.32
2022-06-05T03:43:00,mfh,9.37
2022-06-05T03:44:00,mfh,9.39
2022-06-05T03:45:00,mfh,9.37
2022-06-05T03:46:00,mfh,9.89
2022-06-05T03:47:00,mfh,9.69
2022-06-05T03:48:00,mfh,9.74
2022-06-05T03:49:00,mfh,9.79
2022-06-05T03:50:00,mfh,9.41
2022-06-05T03:51:00,mfh,8.94
2022-06-05T03:52:00,mfh,8.94
2022-06-05T03:53:00,mfh,9.03
2022-06-05T03:54:00,mfh,9.65
2022-06-05T03:55:00,mfh,9.62
2022-06-05T03:56:00,mfh,9.65
2022-06-05T03:57:00,mfh,9.65
2022-06-05T03:58:00,mfh,8.96
2022-06-05T03:59:00,mfh,9.01
2022-06-05T04:00:00,mfh,9.15
2022-06-05T04:01:00,mfh,9.23
2022-06-05T04:02:00,mfh,10.00
2022-06-05T04:03:00,mfh,9.93
2022-06-05T04:04:00,mfh,9.95
2022-06-05T04:05:00,mfh,10.87
2022-06-05T04:06:00,mfh,9.28
2022-06-05T04:07:00,mfh,9.27
2022-06-05T04:08:00,mfh,9.33
2022-06-05T04:09:00,mfh,9.13
2022-06-05T04:10:00,mfh,9.67
2022-06-05T04:11:00,mfh,9.69
2022-06-05T04:12:00,mfh,9.78
2022-06-05T04:13:00,mfh,9.81
2022-06-05T04:14:00,mfh,9.12
2022-06-05T04:15:00,mfh,9.04
2022-06-05T04:16:00,mfh,8.99
2022-06-05T04:17:00,mfh,8.99
2022-06-05T04:18:00,mfh,9.19
2022-06-05T04:19:00,mfh,9.93
2022-06-05T04:20:00,mfh,9.89
2022-06-05T04:21:00,mfh,9.96
2022-06-05T04:22:00,mfh,10.18
2022-06-05T04:23:00,mfh,9.49
2022-06-05T04:24:00,mfh,9.46
2022-06-05T04:25:00,mfh,9.67
2022-06-05T04:26:00,mfh,9.70
2022-06-05T04:27:00,mfh,10.35
2022-06-05T04:28:00,mfh,10.28
2022-06-05T04:29:00,mfh,10.31
2022-06-05T04:30:00,mfh,10.09
2022-06-05T04:31:00,mfh,9.74
2022-06-05T04:32:00,mfh,9.21
2022-06-05T04:33:00,mfh,9.21
2022-06-05T04:34:00,mfh,9.11
2022-06-05T04:35:00,mfh,9.74
2022-06-05T04:36:00,mfh,10.64
2022-06-05T04:37:00,mfh,10.67
2022-06-05T04:38:00,mfh,10.77
2022-06-05T04:39:00,mfh,9.97
2022-06-05T04:40:00,mfh,9.08
2022-06-05T04:41:00,mfh,8.98
2022-06-05T04:42:00,mfh,9.15
2022-06-05T04:43:00,mfh,9.59
2022-06-05T04:44:00,mfh,9.81
2022-06-05T04:45:00,mfh,9.89
2022-06-05T04:46:00,mfh,8.94
2022-06-05T04:47:00,mfh,8.77
2022-06-05T04:48:00,mfh,8.28
2022-06-05T04:49:00,mfh,23.07
2022-06-05T04:50:00,mfh,36.03
2022-06-05T04:51:00,mfh,39.19
2022-06-05T04:52:00,mfh,40.00
2022-06-05T04:53:00,mfh,39.53
2022-06-05T04:54:00,mfh,38.92
2022-06-05T04:55:00,mfh,38.26
2022-06-05T04:56:00,mfh,44.80
2022-06-05T04:57:00,mfh,43.45
2022-06-05T04:58:00,mfh,42.43
2022-06-05T04:59:00,mfh,42.29
2022-06-05T05:00:00,mfh,42.78
2022-06-05T05:01:00,mfh,62.75
2022-06-05T05:02:00,mfh,63.75
2022-06-05T05:03:00,mfh,63.78
2022-06-05T05:04:00,mfh,62.37
2022-06-05T05:05:00,mfh,54.81
2022-06-05T05:06:00,mfh,54.77
2022-06-05T05:07:00,mfh,54.60
2022-06-05T05:08:00,mfh,54.52
2022-06-05T05:09:00,mfh,55.20
2022-06-05T05:10:00,mfh,55.18
2022-06-05T05:11:00,mfh,55.06
2022-06-05T05:12:00,mfh,62.99
2022-06-05T05:13:00,mfh,62.83
2022-06-05T05:14:00,mfh,62.66
2022-06-05T05:15:00,mfh,63.62
2022-06-05T05:16:00,mfh,62.82
2022-06-05T05:17:00,mfh,66.38
2022-06-05T05:18:00,mfh,67.14
2022-06-05T05:19:00,mfh,61.12
2022-06-05T05:20:00,mfh,66.80
2022-06-05T05:21:00,mfh,66.44
2022-06-05T05:22:00,mfh,65.45
2022-06-05T05:23:00,mfh,54.48
2022-06-05T05:24:00,mfh,54.49
2022-06-05T05:25:00,mfh,54.89
2022-06-05T05:26:00,mfh,54.82
2022-06-05T05:27:00,mfh,54.97
2022-06-05T05:28:00,mfh,54.81
2022-06-05T05:29:00,mfh,53.94
2022-06-05T05:30:00,mfh,53.78
2022-06-05T05:31:00,mfh,53.94
2022-06-05T05:32:00,mfh,53.67
2022-06-05T05:33:00,mfh,54.34
2022-06-05T05:34:00,mfh,54.18
2022-06-05T05:35:00,mfh,54.04
2022-06-05T05:36:00,mfh,53.93
2022-06-05T05:37:00,mfh,53.17
2022-06-05T05:38:00,mfh,39.77
2022-06-05T05:39:00,mfh,39.75
2022-06-05T05:40:00,mfh,32.60
2022-06-05T05:41:00,mfh,27.46
2022-06-05T05:42:00,mfh,27.55
2022-06-05T05:43:00,mfh,27.51
2022-06-05T05:44:00,mfh,27.91
2022-06-05T05:45:00,mfh,26.81
2022-06-05T05:46:00,mfh,26.90
2022-06-05T05:47:00,mfh,26.97
2022-06-05T05:48:00,mfh,27.07
2022-06-05T05:49:00,mfh,28.51
2022-06-05T05:50:00,mfh,29.04
2022-06-05T05:51:00,mfh,28.71
2022-06-05T05:52:00,mfh,28.68
2022-06-05T05:53:00,mfh,28.36
2022-06-05T05:54:00,mfh,27.11
2022-06-05T05:55:00,mfh,27.18
2022-06-05T05:56:00,mfh,27.05
2022-06-05T05:57:00,mfh,26.89
2022-06-05T05:58:00,mfh,27.60
2022-06-05T05:59:00,mfh,27.55
2022-06-05T06:00:00,mfh,27.59
2022-06-05T06:01:00,mfh,27.74
2022-06-05T06:02:00,mfh,27.04
2022-06-05T06:03:00,mfh,26.80
2022-06-05T06:04:00,mfh,27.00
2022-06-05T06:05:00,mfh,26.99
2022-06-05T06:06:00,mfh,27.67
2022-06-05T06:07:00,mfh,27.58
2022-06-05T06:08:00,mfh,27.58
2022-06-05T06:09:00,mfh,27.47
2022-06-05T06:10:00,mfh,27.07
2022-06-05T06:11:00,mfh,26.95
2022-06-05T06:12:00,mfh,26.93
2022-06-05T06:13:00,mfh,26.97
2022-06-05T06:14:00,mfh,27.57
2022-06-05T06:15:00,mfh,27.54
2022-06-05T06:16:00,mfh,27.60
2022-06-05T06:17:00,mfh,27.71
2022-06-05T06:18:00,mfh,26.88
2022-06-05T06:19:00,mfh,26.80
2022-06-05T06:20:00,mfh,27.41
2022-06-05T06:21:00,mfh,27.05
2022-06-05T06:22:00,mfh,27.24
2022-06-05T06:23:00,mfh,27.28
2022-06-05T06:24:00,mfh,27.40
2022-06-05T06:25:00,mfh,27.35
2022-06-05T06:26:00,mfh,26.56
2022-06-05T06:27:00,mfh,26.63
2022-06-05T06:28:00,mfh,26.68
2022-06-05T06:29:00,mfh,26.72
2022-06-05T06:30:00,mfh,26.77
2022-06-05T06:31:00,mfh,27.34
2022-06-05T06:32:00,mfh,27.63
2022-06-05T06:33:00,mfh,27.64
2022-06-05T06:34:00,mfh,27.78
2022-06-05T06:35:00,mfh,26.87
2022-06-05T06:36:00,mfh,26.89
2022-06-05T06:37:00,mfh,27.47
2022-06-05T06:38:00,mfh,26.82
2022-06-05T06:39:00,mfh,27.41
2022-06-05T06:40:00,mfh,27.20
2022-06-05T06:41:00,mfh,27.32
2022-06-05T06:42:00,mfh,28.25
2022-06-05T06:43:00,mfh,26.61
2022-06-05T06:44:00,mfh,26.57
2022-06-05T06:45:00,mfh,26.88
2022-06-05T06:46:00,mfh,26.60
2022-06-05T06:47:00,mfh,27.74
2022-06-05T06:48:00,mfh,27.88
2022-06-05T06:49:00,mfh,27.97
2022-06-05T06:50:00,mfh,28.61
2022-06-05T06:51:00,mfh,27.30
2022-06-05T06:52:00,mfh,27.30
2022-06-05T06:53:00,mfh,27.96
2022-06-05T06:54:00,mfh,27.58
2022-06-05T06:55:00,mfh,28.87
2022-06-05T06:56:00,mfh,29.21
2022-06-05T06:57:00,mfh,28.67
2022-06-05T06:58:00,mfh,28.29
2022-06-05T06:59:00,mfh,27.39
2022-06-05T07:00:00,mfh,27.40
2022-06-05T07:01:00,mfh,27.20
2022-06-05T07:02:00,mfh,27.18
2022-06-05T07:03:00,mfh,27.69
2022-06-05T07:04:00,mfh,28.67
2022-06-05T07:05:00,mfh,28.48
2022-06-05T07:06:00,mfh,29.40
2022-06-05T07:07:00,mfh,28.05
2022-06-05T07:08:00,mfh,27.17
2022-06-05T07:09:00,mfh,27.22
2022-06-05T07:10:00,mfh,27.24
2022-06-05T07:11:00,mfh,27.85
2022-06-05T07:12:00,mfh,27.73
2022-06-05T07:13:00,mfh,27.79
2022-06-05T07:14:00,mfh,27.77
2022-06-05T07:15:00,mfh,27.83
2022-06-05T07:16:00,mfh,27.98
2022-06-05T07:17:00,mfh,28.04
2022-06-05T07:18:00,mfh,27.98
2022-06-05T07:19:00,mfh,28.54
2022-06-05T07:20:00,mfh,28.95
2022-06-05T07:21:00,mfh,28.57
2022-06-05T07:22:00,mfh,28.33
2022-06-05T07:23:00,mfh,27.76
2022-06-05T07:24:00,mfh,27.69
2022-06-05T07:25:00,mfh,27.59
2022-06-05T07:26:00,mfh,28.00
2022-06-05T07:27:00,mfh,27.65
2022-06-05T07:28:00,mfh,28.26
2022-06-05T07:29:00,mfh,28.17
2022-06-05T07:30:00,mfh,28.08
2022-06-05T07:31:00,mfh,28.29
2022-06-05T07:32:00,mfh,28.61
2022-06-05T07:33:00,mfh,27.57
2022-06-05T07:34:00,mfh,27.54
2022-06-05T07:35:00,mfh,27.49
2022-06-05T07:36:00,mfh,28.24
2022-06-05T07:37:00,mfh,28.16
2022-06-05T07:38:00,mfh,28.18
2022-06-05T07:39:00,mfh,28.19
2022-06-05T07:40:00,mfh,28.23
2022-06-05T07:41:00,mfh,27.56
2022-06-05T07:42:00,mfh,27.54
2022-06-05T07:43:00,mfh,27.65
2022-06-05T07:44:00,mfh,27.53
2022-06-05T07:45:00,mfh,28.14
2022-06-05T07:46:00,mfh,28.24
2022-06-05T07:47:00,mfh,27.98
2022-06-05T07:48:00,mfh,28.06
2022-06-05T07:49:00,mfh,28.03
2022-06-05T07:50:00,mfh,27.44
2022-06-05T07:51:00,mfh,27.47
2022-06-05T07:52:00,mfh,27.42
2022-06-05T07:53:00,mfh,27.99
2022-06-05T07:54:00,mfh,28.02
2022-06-05T07:55:00,mfh,28.08
2022-06-05T07:56:00,mfh,28.11
2022-06-05T07:57:00,mfh,27.59
2022-06-05T07:58:00,mfh,27.51
2022-06-05T07:59:00,mfh,27.53
2022-06-05T08:00:00,mfh,27.51
2022-06-05T08:01:00,mfh,28.14
2022-06-05T08:02:00,mfh,29.13
2022-06-05T08:03:00,mfh,28.17
2022-06-05T08:04:00,mfh,28.16
2022-06-05T08:05:00,mfh,27.59
2022-06-05T08:06:00,mfh,27.23
2022-06-05T08:07:00,mfh,27.12
2022-06-05T08:08:00,mfh,27.59
2022-06-05T08:09:00,mfh,27.89
2022-06-05T08:10:00,mfh,27.85
2022-06-05T08:11:00,mfh,27.88
2022-06-05T08:12:00,mfh,27.89
2022-06-05T08:13:00,mfh,27.28
2022-06-05T08:14:00,mfh,27.27
2022-06-05T08:15:00,mfh,27.30
2022-06-05T08:16:00,mfh,27.44
2022-06-05T08:17:00,mfh,28.83
2022-06-05T08:18:00,mfh,28.69
2022-06-05T08:19:00,mfh,29.20
2022-06-05T08:20:00,mfh,29.07
2022-06-05T08:21:00,mfh,29.06
2022-06-05T08:22:00,mfh,27.43
2022-06-05T08:23:00,mfh,27.47
2022-06-05T08:24:00,mfh,27.44
2022-06-05T08:25:00,mfh,27.36
2022-06-05T08:26:00,mfh,27.94
2022-06-05T08:27:00,mfh,27.83
2022-06-05T08:28:00,mfh,28.06
2022-06-05T08:29:00,mfh,27.43
2022-06-05T08:30:00,mfh,27.41
2022-06-05T08:31:00,mfh,28.23
2022-06-05T08:32:00,mfh,27.32
2022-06-05T08:33:00,mfh,27.30
2022-06-05T08:34:00,mfh,27.93
2022-06-05T08:35:00,mfh,27.86
2022-06-05T08:36:00,mfh,28.01
2022-06-05T08:37:00,mfh,28.04
2022-06-05T08:38:00,mfh,27.13
2022-06-05T08:39:00,mfh,27.19
2022-06-05T08:40:00,mfh,27.47
2022-06-05T08:41:00,mfh,27.54
2022-06-05T08:42:00,mfh,28.18
2022-06-05T08:43:00,mfh,28.43
2022-06-05T08:44:00,mfh,28.54
2022-06-05T08:45:00,mfh,28.36
2022-06-05T08:46:00,mfh,27.64
2022-06-05T08:47:00,mfh,28.19
2022-06-05T08:48:00,mfh,27.50
2022-06-05T08:49:00,mfh,27.41
2022-06-05T08:50:00,mfh,28.02
2022-06-05T08:51:00,mfh,28.00
2022-06-05T08:52:00,mfh,28.02
2022-06-05T08:53:00,mfh,27.99
2022-06-05T08:54:00,mfh,28.12
2022-06-05T08:55:00,mfh,27.40
2022-06-05T08:56:00,mfh,27.36
2022-06-05T08:57:00,mfh,27.41
2022-06-05T08:58:00,mfh,27.35
2022-06-05T08:59:00,mfh,28.40
2022-06-05T09:00:00,mfh,28.01
2022-06-05T09:01:00,mfh,27.89
2022-06-05T09:02:00,mfh,28.04
2022-06-05T09:03:00,mfh,27.45
2022-06-05T09:04:00,mfh,27.51
2022-06-05T09:05:00,mfh,28.04
2022-06-05T09:06:00,mfh,36.97
2022-06-05T09:07:00,mfh,38.04
2022-06-05T09:08:00,mfh,38.39
2022-06-05T09:09:00,mfh,38.24
2022-06-05T09:10:00,mfh,38.05
2022-06-05T09:11:00,mfh,37.22
2022-06-05T09:12:00,mfh,37.20
2022-06-05T09:13:00,mfh,37.10
2022-06-05T09:14:00,mfh,37.04
2022-06-05T09:15:00,mfh,37.67
2022-06-05T09:16:00,mfh,37.73
2022-06-05T09:17:00,mfh,37.82
2022-06-05T09:18:00,mfh,37.86
2022-06-05T09:19:00,mfh,37.15
2022-06-05T09:20:00,mfh,37.07
2022-06-05T09:21:00,mfh,37.07
2022-06-05T09:22:00,mfh,37.05
2022-06-05T09:23:00,mfh,37.79
2022-06-05T09:24:00,mfh,37.58
2022-06-05T09:25:00,mfh,37.61
2022-06-05T09:26:00,mfh,37.60
2022-06-05T09:27:00,mfh,37.39
2022-06-05T09:28:00,mfh,36.91
2022-06-05T09:29:00,mfh,37.03
2022-06-05T09:30:00,mfh,37.02
2022-06-05T09:31:00,mfh,38.15
2022-06-05T09:32:00,mfh,38.12
2022-06-05T09:33:00,mfh,38.13
2022-06-05T09:34:00,mfh,38.26
2022-06-05T09:35:00,mfh,38.69
2022-06-05T09:36:00,mfh,37.65
2022-06-05T09:37:00,mfh,36.72
2022-06-05T09:38:00,mfh,37.14
2022-06-05T09:39:00,mfh,36.88
2022-06-05T09:40:00,mfh,37.26
2022-06-05T09:41:00,mfh,37.44
2022-06-05T09:42:00,mfh,37.47
2022-06-05T09:43:00,mfh,37.54
2022-06-05T09:44:00,mfh,36.89
2022-06-05T09:45:00,mfh,37.11
2022-06-05T09:46:00,mfh,37.23
2022-06-05T09:47:00,mfh,37.26
2022-06-05T09:48:00,mfh,37.87
2022-06-05T09:49:00,mfh,37.82
2022-06-05T09:50:00,mfh,37.76
2022-06-05T09:51:00,mfh,37.78
2022-06-05T09:52:00,mfh,37.07
2022-06-05T09:53:00,mfh,36.82
2022-06-05T09:54:00,mfh,36.92
2022-06-05T09:55:00,mfh,36.81
2022-06-05T09:56:00,mfh,37.46
2022-06-05T09:57:00,mfh,37.47
2022-06-05T09:58:00,mfh,37.51
2022-06-05T09:59:00,mfh,37.48
2022-06-05T10:00:00,mfh,36.89
2022-06-05T10:01:00,mfh,36.96
2022-06-05T10:02:00,mfh,36.92
2022-06-05T10:03:00,mfh,36.95
2022-06-05T10:04:00,mfh,37.63
2022-06-05T10:05:00,mfh,37.64
2022-06-05T10:06:00,mfh,37.89
2022-06-05T10:07:00,mfh,38.41
2022-06-05T10:08:00,mfh,37.30
2022-06-05T10:09:00,mfh,37.37
2022-06-05T10:10:00,mfh,37.56
2022-06-05T10:11:00,mfh,37.51
2022-06-05T10:12:00,mfh,37.45
2022-06-05T10:13:00,mfh,38.13
2022-06-05T10:14:00,mfh,38.10
2022-06-05T10:15:00,mfh,37.76
2022-06-05T10:16:00,mfh,37.66
2022-06-05T10:17:00,mfh,37.01
2022-06-05T10:18:00,mfh,36.80
2022-06-05T10:19:00,mfh,36.87
2022-06-05T10:20:00,mfh,36.76
2022-06-05T10:21:00,mfh,37.51
2022-06-05T10:22:00,mfh,37.80
2022-06-05T10:23:00,mfh,37.45
2022-06-05T10:24:00,mfh,37.41
2022-06-05T10:25:00,mfh,37.23
2022-06-05T10:26:00,mfh,36.88
2022-06-05T10:27:00,mfh,36.96
2022-06-05T10:28:00,mfh,37.18
2022-06-05T10:29:00,mfh,37.70
2022-06-05T10:30:00,mfh,37.70
2022-06-05T10:31:00,mfh,37.55
2022-06-05T10:32:00,mfh,37.45
2022-06-05T10:33:00,mfh,36.68
2022-06-05T10:34:00,mfh,36.73
2022-06-05T10:35:00,mfh,36.90
2022-06-05T10:36:00,mfh,36.57
2022-06-05T10:37:00,mfh,37.26
2022-06-05T10:38:00,mfh,37.24
2022-06-05T10:39:00,mfh,37.22
2022-06-05T10:40:00,mfh,37.69
2022-06-05T10:41:00,mfh,37.42
2022-06-05T10:42:00,mfh,36.46
2022-06-05T10:43:00,mfh,36.43
2022-06-05T10:44:00,mfh,36.38
2022-06-05T10:45:00,mfh,36.47
2022-06-05T10:46:00,mfh,36.99
2022-06-05T10:47:00,mfh,37.12
2022-06-05T10:48:00,mfh,37.94
2022-06-05T10:49:00,mfh,37.90
2022-06-05T10:50:00,mfh,37.42
2022-06-05T10:51:00,mfh,38.18
2022-06-05T10:52:00,mfh,36.72
2022-06-05T10:53:00,mfh,36.74
2022-06-05T10:54:00,mfh,38.03
2022-06-05T10:55:00,mfh,36.67
2022-06-05T10:56:00,mfh,36.59
2022-06-05T10:57:00,mfh,36.67
2022-06-05T10:58:00,mfh,36.58
2022-06-05T10:59:00,mfh,37.12
2022-06-05T11:00:00,mfh,37.02
2022-06-05T11:01:00,mfh,37.01
2022-06-05T11:02:00,mfh,37.16
2022-06-05T11:03:00,mfh,36.44
2022-06-05T11:04:00,mfh,36.55
2022-06-05T11:05:00,mfh,36.41
2022-06-05T11:06:00,mfh,36.60
2022-06-05T11:07:00,mfh,36.55
2022-06-05T11:08:00,mfh,37.22
2022-06-05T11:09:00,mfh,37.09
2022-06-05T11:10:00,mfh,37.57
2022-06-05T11:11:00,mfh,37.27
2022-06-05T11:12:00,mfh,37.03
2022-06-05T11:13:00,mfh,36.88
2022-06-05T11:14:00,mfh,36.83
2022-06-05T11:15:00,mfh,36.76
2022-06-05T11:16:00,mfh,37.73
2022-06-05T11:17:00,mfh,37.34
2022-06-05T11:18:00,mfh,37.36
2022-06-05T11:19:00,mfh,37.28
2022-06-05T11:20:00,mfh,36.60
2022-06-05T11:21:00,mfh,36.37
2022-06-05T11:22:00,mfh,36.35
2022-06-05T11:23:00,mfh,36.42
2022-06-05T11:24:00,mfh,37.43
2022-06-05T11:25:00,mfh,37.32
2022-06-05T11:26:00,mfh,37.31
2022-06-05T11:27:00,mfh,37.30
2022-06-05T11:28:00,mfh,37.40
2022-06-05T11:29:00,mfh,36.61
2022-06-05T11:30:00,mfh,37.31
2022-06-05T11:31:00,mfh,36.86
2022-06-05T11:32:00,mfh,37.56
2022-06-05T11:33:00,mfh,37.45
2022-06-05T11:34:00,mfh,38.11
2022-06-05T11:35:00,mfh,37.87
2022-06-05T11:36:00,mfh,37.82
2022-06-05T11:37:00,mfh,37.25
2022-06-05T11:38:00,mfh,37.95
2022-06-05T11:39:00,mfh,37.14
2022-06-05T11:40:00,mfh,37.26
2022-06-05T11:41:00,mfh,37.93
2022-06-05T11:42:00,mfh,38.03
2022-06-05T11:43:00,mfh,38.06
2022-06-05T11:44:00,mfh,37.98
2022-06-05T11:45:00,mfh,38.03
2022-06-05T11:46:00,mfh,38.25
2022-06-05T11:47:00,mfh,38.07
2022-06-05T11:48:00,mfh,37.93
2022-06-05T11:49:00,mfh,38.26
2022-06-05T11:50:00,mfh,38.78
2022-06-05T11:51:00,mfh,38.79
2022-06-05T11:52:00,mfh,38.82
2022-06-05T11:53:00,mfh,39.43
2022-06-05T11:54:00,mfh,37.97
2022-06-05T11:55:00,mfh,38.08
2022-06-05T11:56:00,mfh,38.08
2022-06-05T11:57:00,mfh,38.25
2022-06-05T11:58:00,mfh,38.78
2022-06-05T11:59:00,mfh,38.85
2022-06-05T12:00:00,mfh,38.38
2022-06-05T12:01:00,mfh,38.27
2022-06-05T12:02:00,mfh,37.58
2022-06-05T12:03:00,mfh,38.31
2022-06-05T12:04:00,mfh,38.49
2022-06-05T12:05:00,mfh,38.63
2022-06-05T12:06:00,mfh,38.83
2022-06-05T12:07:00,mfh,38.07
2022-06-05T12:08:00,mfh,38.15
2022-06-05T12:09:00,mfh,38.21
2022-06-05T12:10:00,mfh,37.57
2022-06-05T12:11:00,mfh,38.20
2022-06-05T12:12:00,mfh,37.79
2022-06-05T12:13:00,mfh,37.70
2022-06-05T12:14:00,mfh,38.81
2022-06-05T12:15:00,mfh,38.40
2022-06-05T12:16:00,mfh,38.27
2022-06-05T12:17:00,mfh,38.39
2022-06-05T12:18:00,mfh,37.63
2022-06-05T12:19:00,mfh,37.18
2022-06-05T12:20:00,mfh,37.95
2022-06-05T12:21:00,mfh,37.77
2022-06-05T12:22:00,mfh,37.34
2022-06-05T12:23:00,mfh,38.41
2022-06-05T12:24:00,mfh,39.06
2022-06-05T12:25:00,mfh,37.86
2022-06-05T12:26:00,mfh,37.04
2022-06-05T12:27:00,mfh,37.01
2022-06-05T12:28:00,mfh,37.01
2022-06-05T12:29:00,mfh,36.92
2022-06-05T12:30:00,mfh,36.87
2022-06-05T12:31:00,mfh,37.54
2022-06-05T12:32:00,mfh,37.76
2022-06-05T12:33:00,mfh,37.73
2022-06-05T12:34:00,mfh,37.73
2022-06-05T12:35:00,mfh,37.26
2022-06-05T12:36:00,mfh,36.96
2022-06-05T12:37:00,mfh,36.88
2022-06-05T12:38:00,mfh,36.86
2022-06-05T12:39:00,mfh,37.46
2022-06-05T12:40:00,mfh,37.37
2022-06-05T12:41:00,mfh,37.44
2022-06-05T12:42:00,mfh,37.89
2022-06-05T12:43:00,mfh,37.70
2022-06-05T12:44:00,mfh,38.10
2022-06-05T12:45:00,mfh,37.81
2022-06-05T12:46:00,mfh,37.59
2022-06-05T12:47:00,mfh,38.14
2022-06-05T12:48:00,mfh,38.27
2022-06-05T12:49:00,mfh,37.89
2022-06-05T12:50:00,mfh,37.94
2022-06-05T12:51:00,mfh,37.74
2022-06-05T12:52:00,mfh,37.50
2022-06-05T12:53:00,mfh,37.44
2022-06-05T12:54:00,mfh,37.48
2022-06-05T12:55:00,mfh,37.60
2022-06-05T12:56:00,mfh,38.28
2022-06-05T12:57:00,mfh,37.65
2022-06-05T12:58:00,mfh,37.52
2022-06-05T12:59:00,mfh,37.38
2022-06-05T13:00:00,mfh,36.61
2022-06-05T13:01:00,mfh,36.66
2022-06-05T13:02:00,mfh,36.76
2022-06-05T13:03:00,mfh,36.80
2022-06-05T13:04:00,mfh,37.27
2022-06-05T13:05:00,mfh,37.56
2022-06-05T13:06:00,mfh,37.90
2022-06-05T13:07:00,mfh,37.68
2022-06-05T13:08:00,mfh,36.96
2022-06-05T13:09:00,mfh,37.21
2022-06-05T13:10:00,mfh,37.13
2022-06-05T13:11:00,mfh,37.06
2022-06-05T13:12:00,mfh,37.79
2022-06-05T13:13:00,mfh,37.61
2022-06-05T13:14:00,mfh,37.63
2022-06-05T13:15:00,mfh,37.43
2022-06-05T13:16:00,mfh,37.61
2022-06-05T13:17:00,mfh,36.75
2022-06-05T13:18:00,mfh,37.58
2022-06-05T13:19:00,mfh,37.57
2022-06-05T13:20:00,mfh,37.53
2022-06-05T13:21:00,mfh,38.29
2022-06-05T13:22:00,mfh,38.30